Regional Weather Roundup
Issued by NWS

Home | Current Version | Previous Version | Text Only | Print | Product List | Glossary Off
Versions: 1 2 3 4 5 6 7 8 9 10 11 12 13 14 15 16 17 18 19 20 21 22 23 24 25 26 27 28 29 30 31 32 33 34 35 36 37 38 39 40 41 42 43 44 45 46 47 48 49 50

000
ASUS43 KLMK 061502
RWRKY
KENTUCKY REGIONAL WEATHER ROUNDUP
NATIONAL WEATHER SERVICE LOUISVILLE KY
1100 AM EDT WED MAY 06 2015

NOTE "FAIR" INDICATES FEW OR NO CLOUDS BELOW 12,000 FEET
WITH NO SIGNIFICANT WEATHER AND/OR OBSTRUCTIONS TO VISIBILITY.

KYZ001>023-026-027-061>063-070>075-061600-
WESTERN AND SOUTH CENTRAL KENTUCKY

CITY           SKY/WX    TMP DP  RH WIND       PRES   REMARKS
PADUCAH        SUNNY     78  58  49 VRB5      30.18S
HENDERSON      PTSUNNY   79  55  44 S3        30.19S
OWENSBORO      MOSUNNY   79  58  48 CALM      30.21S
HOPKINSVILLE   NOT AVBL
BOWLING GREEN  MOSUNNY   78  59  51 W3        30.21S
GLASGOW        NOT AVBL
$$

KYZ024-025-028>034-038-045-046-053-061600-
NORTH CENTRAL KENTUCKY

CITY           SKY/WX    TMP DP  RH WIND       PRES   REMARKS
LOUISVILLE/SDF PTSUNNY   78  57  48 SE3       30.21S
LOUISVILLE/LOU MOSUNNY   78  56  46 CALM      30.22S
FORT KNOX      NOT AVBL
$$

KYZ035>037-039>044-047>052-055>060-089>105-061600-
NORTHEAST KENTUCKY

CITY           SKY/WX    TMP DP  RH WIND       PRES   REMARKS
LEXINGTON      PTSUNNY   79  57  46 CALM      30.23F
COVINGTON      MOSUNNY   80  56  43 CALM      30.22F
FRANKFORT      SUNNY     79  57  46 CALM      30.22S
$$

KYZ054-064>069-076>088-106>120-061600-
SOUTHEAST KENTUCKY

CITY           SKY/WX    TMP DP  RH WIND       PRES   REMARKS
JACKSON        CLOUDY    71  59  65 CALM      30.25S
LONDON         PTSUNNY   74  55  51 CALM      30.24S
SOMERSET       NOT AVBL
MIDDLESBORO    PTSUNNY   72  60  65 CALM      30.25F
MONTICELLO     MOSUNNY   77  59  53 CALM      30.25F
$$




USA.gov is the U.S. government's official web portal to all federal, state and local government web resources and services.